Home   Weather   Tunis   Past weeks

Flag for Tunisia Past Weather in Tunis, Tunisia — Yesterday and Last 2 Weeks

Now
45 °F

Scattered clouds.


Feels Like: 38 °F
Forecast: 42 / 56 °F
Wind: 15 mph from Southwest

Location: Tunis-Carthage

Current Time: Jan 18, 2017 at 9:11:26 am

Latest Report: Jan 18, 2017 at 8:30 am


Visibility: 5 mi

Pressure: 29.74 "Hg

Humidity: 81%

Dew Point: 39 °F

Location of TunisLocation

Past Weather in Tunis — Graph

°F

Tunis Temperature Yesterday

Maximum temperature yesterday: 46 °F (at 12:30 pm)
Minimum temperature yesterday: 36 °F (at 7:30 am)
Average temperature yesterday: 42 °F

High & Low Weather Summary for the Past Weeks

 TemperatureHumidityPressure
High63 °F (Jan 5, 11:30 am)94% (Jan 5, 7:00 pm)30.36 "Hg (Jan 5, 7:00 pm)
Low36 °F (Jan 17, 7:30 am)40% (Jan 6, 3:30 pm)29.62 "Hg (Jan 17, 6:00 am)
Average49 °F73%30.01 "Hg
* Reported Jan 3 7:00 am — Jan 18 7:30 am, Tunis, Weather by CustomWeather, © 2017

Note: Actual official high and low records may vary slightly from our data, if they occured in-between our weather recording intervals... More about our weather records

Advertising

Tunis Weather History for the Previous 24 Hours

Scroll right to see more
 ConditionsComfort  
Time TempWeatherWind HumidityBarometerVisibility
7:30 am
Wed, Jan 18
43 °FScattered clouds.13 mph81%29.74 "Hg5 mi
7:00 am43 °FPassing clouds.15 mph81%29.74 "HgN/A
6:30 am43 °FPassing clouds.16 mph81%29.71 "HgN/A
6:00 am43 °FPassing clouds.13 mph81%29.68 "HgN/A
5:30 am41 °FPassing clouds.17 mph81%29.68 "HgN/A
5:00 am41 °FPassing clouds.15 mph81%29.68 "HgN/A
4:30 am41 °FPassing clouds.15 mph81%29.68 "HgN/A
4:00 am41 °FPassing clouds.17 mph81%29.68 "HgN/A
3:00 am41 °FPassing clouds.20 mph81%29.68 "HgN/A
2:30 am41 °FPassing clouds.18 mph81%29.68 "HgN/A
2:00 am41 °FPassing clouds.17 mph81%29.68 "HgN/A
1:30 am41 °FPassing clouds.18 mph81%29.68 "HgN/A
1:00 am41 °FPassing clouds.17 mph87%29.68 "HgN/A
12:30 am43 °FPassing clouds.15 mph81%29.68 "HgN/A
12:00 am43 °FPassing clouds.15 mph81%29.68 "HgN/A
11:30 pm
Tue, Jan 17
43 °FPassing clouds.14 mph76%29.68 "HgN/A
11:00 pm41 °FPassing clouds.15 mph81%29.68 "HgN/A
10:30 pm43 °FPassing clouds.20 mph76%29.68 "HgN/A
10:00 pm43 °FPassing clouds.21 mph76%29.65 "HgN/A
9:30 pm43 °FPassing clouds.21 mph76%29.65 "HgN/A
9:00 pm43 °FPassing clouds.20 mph76%29.68 "HgN/A
8:30 pm43 °FPassing clouds.20 mph76%29.68 "HgN/A
8:00 pm43 °FPassing clouds.20 mph76%29.68 "HgN/A
7:30 pm43 °FPassing clouds.16 mph76%29.65 "HgN/A
7:00 pm41 °FPassing clouds.17 mph81%29.65 "HgN/A
6:30 pm43 °FPassing clouds.16 mph76%29.65 "HgN/A
6:00 pm43 °FPassing clouds.18 mph76%29.65 "HgN/A
5:30 pm43 °FPassing clouds.16 mph76%29.65 "HgN/A
5:00 pm45 °FScattered clouds.18 mph71%29.62 "HgN/A
4:30 pm45 °FScattered clouds.12 mph76%29.65 "HgN/A
4:00 pm46 °FScattered clouds.13 mph71%29.65 "HgN/A
3:30 pm45 °FScattered clouds.15 mph76%29.62 "HgN/A
3:00 pm45 °FScattered clouds.13 mph81%29.62 "HgN/A
2:30 pm43 °FScattered clouds.10 mph81%29.62 "HgN/A
2:00 pm41 °FLight rain. Scattered clouds.10 mph87%29.65 "Hg5 mi
1:30 pm43 °FLight rain. Scattered clouds.15 mph81%29.65 "Hg5 mi
1:00 pm43 °FLight rain. Scattered clouds.14 mph81%29.65 "Hg5 mi
12:30 pm46 °FScattered clouds.18 mph76%29.65 "HgN/A
12:00 pm45 °FScattered clouds.15 mph76%29.65 "HgN/A
11:30 am43 °FScattered clouds.15 mph76%29.65 "HgN/A
11:00 am43 °FScattered clouds.14 mph81%29.68 "HgN/A
10:30 am41 °FScattered clouds.14 mph87%29.68 "HgN/A
10:00 am41 °FScattered clouds.14 mph87%29.68 "HgN/A
9:30 am41 °FScattered clouds.15 mph87%29.68 "HgN/A
9:00 am39 °FScattered clouds.12 mph87%29.68 "HgN/A
Weather by CustomWeather, © 2017

See weather overviewHow to use our weather pages